SL-16 DEB, 22393

Orbit data source: Space-Track

SL-16 DEB, 22393 is space debris in LEO originally from a launch on Fri, 25 Dec 1992 UTC launched from the Tyuratam Missile And Space Complex (TTMTR). Debris objects in space refer to the collection of defunct objects orbiting the Earth. Examples of debris include non-operational satellites, rocket bodies, and fragments generated from explosions, collisions, or faulty payload assembly.

Loading next visibility...
Identifier
22393, 1992-093CJ
Orbit
LEO
Country
Flag of CISCIS
Related business
Manufacturer
Unknown
Mission
Spacecraft
Bus & Motor
Unknown
Mass
Unknown
Launch date (UTC)
1992-12-25 (33 years ago)
Launch vehicle
Unknown
Launch site
Tyuratam Missile And Space Complex (TTMTR)
Object type
Payload
Rocket body
Debris
Shape & HBR
Unknown shape, 0.2 m
Radar Cross Section
Small (<0.1 m²)

Expand to show TLE details & history
Last TLE update: 12 hours ago

TLE from 12 hours ago
0 SL-16 DEB
1 22393U 92093CJ  26126.83912869  .00001241  00000-0  68745-3 0  9996
2 22393  71.1211 303.2850 0115076  73.8926  47.9209 14.09823443702288
Epoch: 2026-05-06T20:08Z
TLE epoch observation values (Epoch: 2026-05-06T20:08:20.718Z)
Latitude
52.79877°
Longitude
-70.11764°
Altitude
812.75 km
Speed
7.481 km/s
True Right ascension
06h 26m 39s
True Declination
52° 38' 03"
Sunlit
Object was in daylight at epoch
Visualization orbit readout
Latitude
Unknown
Longitude
Unknown
Altitude
Unknown
Speed
Unknown
Apparent Right ascension
Unknown
Apparent Declination
Unknown
Sunlit
N/A
Visualization observer readout
Local Sidereal Time
16:20:49
Azimuth
Unknown
Elevation
Unknown
Doppler factor
Unknown
Orbital elements
Apogee altitude
941.163 km
Perigee altitude
774.624 km
Semi-major axis
7,236.031 km
Eccentricity
0.01151
Inclination
71.1211°
RAAN
303.285°
Arg. of periapsis
73.8926°
True anomaly
48.90912°
Mean anomaly
47.9209°
Eccentric anomaly
48.41406°
Mean motion
3.52608 °/min
Orbital period
102.1 mins
BSTAR
0.00068745
Loading maneuver chart data...
Computing Atmospheric mass density...
Loading historical data...
Loading historical data...
Loading historical data...
Loading historical data...
Loading historical data...
Loading historical data...
Loading historical data...

Documentation

Showing up to 5 results
|